[[{"header":{"parameterUnit":"m.s-1","parameterCategory":1,"la1":30.2991,"la2":30.254,"lo1":-89.0895,"lo2":-89.0444,"dy":0.0017,"dx":0.0017,"nx":28,"ny":28,"refTime":"2023-09-04T03:00:00:Z","depth":0,"parameterNumber":2,"parameterNumberName":"U-component_of_WINDS"},"data":[0,0,0,0,0,0,0,0,0,0,0,0,0,0,0,0,0,0,0,0,0,0,0,0,0,0,0,0,0,0,0,0,0,0,0,0,0,0,0,0,0,0,0,0,0,0,0,0,0,0,0,0,0,0,0,0,0,0,-3.9818,-3.9821,0,-4.0029,-4.0031,-4.0034,-4.0064,-4.0062,-4.006,-4.0058,-4.0276,-4.0284,-4.0291,0,0,0,0,0,0,0,0,0,0,0,0,0,-3.9446,-3.9453,-3.9818,-3.9821,-3.9824,-4.0029,-4.0031,-4.0034,-4.0064,-4.0062,-4.006,-4.0057,-4.0274,-4.0283,-4.0292,0,0,0,0,0,0,0,0,0,0,0,0,0,-3.9627,-3.9455,-3.9818,-3.9863,-3.9869,-4.0028,-4.0032,-4.0035,-4.0065,-4.0062,-4.0059,-4.0056,-4.0271,-4.0282,-4.0293,-4.0422,0,0,-4.0328,-4.0333,0,0,0,0,0,0,0,0,-3.9617,-3.9641,-3.9854,-3.986,-3.9868,-4.0017,-3.998,-4.0165,-4.0066,-3.9991,-4.0058,-4.0055,-4.0193,-4.021,-4.0256,-4.0432,-4.0442,-4.0329,-4.0336,-4.0341,-4.0344,0,0,0,0,0,0,0,-3.9605,-3.9632,-3.9902,-3.9857,-3.9865,-3.9874,-3.9897,-4.0015,-4.0106,-3.9997,-4.0,-4.0024,-4.0196,-4.0245,-4.0262,-4.0445,-4.0329,-4.0339,-4.0346,-4.0351,-4.0738,-4.0741,0,0,0,0,0,0,-3.9583,-3.9622,-3.9895,-3.9908,-3.9732,-3.9883,-3.9909,-3.9972,-4.0104,-4.0122,-4.0026,-4.0025,-4.0227,-4.0248,-4.0269,-4.0429,-4.0341,-4.0352,-4.0358,-4.0735,-4.0739,-4.0743,0,0,0,0,0,0,-3.9575,-3.9607,-3.9887,-3.9766,-3.9802,-3.9893,-3.9964,-3.9978,-4.0027,-4.0126,-4.0143,-4.006,-4.0226,-4.0253,-4.0384,-4.0437,-4.0357,-4.0367,-4.0731,-4.0736,-4.0741,-4.0748,0,0,0,0,0,0,-3.9564,-3.9604,-3.9653,-3.9766,-3.9808,-3.9996,-3.9967,-3.9984,-4.0046,-4.0046,-4.0162,-4.0179,-4.0226,-4.0367,-4.0395,-4.0451,-4.0376,-4.0726,-4.0733,-4.0739,-4.0743,-4.0753,-4.0761,0,0,0,0,0,-3.9551,-3.9647,-3.9655,-3.9688,-3.9871,-3.9999,-4.0023,-4.0074,-4.005,-4.0101,-4.0165,-4.0175,-4.0427,-4.038,-4.0412,-4.0472,-4.0723,-4.0731,-4.0739,-4.074,-4.0751,-4.0761,0,0,0,0,0,0,-3.9538,-3.9663,-3.9673,-3.9809,-3.9893,-4.0004,-4.0069,-4.0085,-4.0178,-4.0174,-4.0235,-4.0261,-4.0388,-4.0444,-4.0389,-4.0604,-4.0573,-4.0588,-4.0563,-4.0574,-4.0583,-4.0566,-4.0386,0,0,0,0,0,-3.9551,-3.9643,-3.9748,-3.9858,-3.9899,-3.9977,-4.0035,-4.0067,-4.0157,-4.0193,-4.0267,-4.0355,-4.0454,-4.0518,-4.0614,-4.0753,-4.0779,-4.081,-4.0819,-4.0825,-4.0837,-4.0915,-4.093,-4.0768,-4.0768,-4.0768,0,0,-3.9578,-3.9658,-3.9713,-3.9857,-3.9926,-4.0022,-4.0007,-4.0108,-4.018,-4.0209,-4.0336,-4.0394,-4.0496,-4.0631,-4.0694,-4.0681,-4.0888,-4.0835,-4.084,-4.0848,-4.0924,-4.0939,-4.0953,-4.0773,-4.0772,-4.0772,0,0,-3.9677,-3.9746,-3.9845,-3.9915,-4.002,-4.0071,-4.0095,-4.0204,-4.0243,-4.0372,-4.0396,-4.0483,-4.0652,-4.0724,-4.0783,-4.0911,-4.0924,-4.0941,-4.0986,-4.1061,-4.1073,-4.1085,-4.113,-4.1146,-4.0953,-4.0953,-4.0953,0,-3.9698,-3.9841,-3.9894,-3.9995,-4.0058,-4.0089,-4.019,-4.0256,-4.0387,-4.043,-4.0414,-4.0628,-4.0699,-4.0851,-4.0882,-4.0929,-4.0959,-4.0927,-4.1067,-4.1079,-4.1091,-4.1135,-4.1152,-4.0954,-4.0954,-4.0954,-4.0954,0,-3.9862,-3.9961,-4.0029,-4.0154,-4.0225,-4.0326,-4.0395,-4.0461,-4.0488,-4.0541,-4.0673,-4.076,-4.0874,-4.0914,-4.0941,-4.1071,-4.1059,-4.1055,-4.1024,-4.1107,-4.1149,-4.1166,-4.0956,-4.0955,-4.0955,-4.0955,0,0,-3.9955,-4.0109,-4.0133,-4.019,-4.0309,-4.0388,-4.0491,-4.0603,-4.0658,-4.0749,-4.0837,-4.098,-4.0977,-4.1044,-4.108,-4.1146,-4.1242,-4.1134,-4.1137,-4.115,-4.139,-4.1391,-4.1409,-4.1252,-4.1255,-4.1258,-4.1381,0,-4.0067,-4.0249,-4.03,-4.0455,-4.0548,-4.0579,-4.0669,-4.0753,-4.0806,-4.0894,-4.0954,-4.1054,-4.1043,-4.1083,-4.115,-4.1216,-4.129,-4.1208,-4.1335,-4.1338,-4.1306,-4.1432,-4.1433,-4.1544,-4.1398,-4.14,-4.1402,0,-4.022,-4.0312,-4.0475,-4.0583,-4.0624,-4.0703,-4.081,-4.0894,-4.099,-4.1025,-4.11,-4.1131,-4.1241,-4.1206,-4.1359,-4.1301,-4.1357,-4.1397,-4.1403,-4.1415,-4.1374,-4.1446,-4.1581,-4.1597,-4.1429,-4.1427,-4.1425,0,-4.0271,-4.0436,-4.0555,-4.0604,-4.0732,-4.0787,-4.0844,-4.0937,-4.1001,-4.1096,-4.1138,-4.1245,-4.1303,-4.1385,-4.1445,-4.1414,-4.1592,-4.1563,-4.1624,-4.1623,-4.1658,-4.1655,-4.1803,-4.1697,-4.1697,-4.1696,-4.1696,0,-4.0388,-4.0487,-4.058,-4.0652,-4.0764,-4.0824,-4.0934,-4.0992,-4.1075,-4.1161,-4.1196,-4.1276,-4.135,-4.1441,-4.1489,-4.1608,-4.1635,-4.1666,-4.1677,-4.1662,-4.1657,-4.1697,-4.169,-4.1701,-4.17,-4.1699,-4.1698,0,-4.0462,-4.0529,-4.066,-4.0772,-4.0802,-4.0879,-4.0975,-4.1049,-4.1104,-4.1212,-4.1241,-4.1329,-4.1438,-4.1506,-4.1644,-4.1676,-4.1807,-4.1816,-4.1774,-4.1778,-4.1836,-4.1829,-4.2013,-4.204,-4.1917,-4.1918,-4.1919,0,-4.0532,-4.0608,-4.0728,-4.0787,-4.0844,-4.094,-4.1005,-4.1068,-4.1135,-4.1251,-4.1311,-4.1421,-4.1513,-4.1686,-4.1762,-4.1869,-4.188,-4.1938,-4.1896,-4.1879,-4.188,-4.1874,-4.1882,-4.1943,-4.1944,-4.1945,-4.1946,0,-4.0649,-4.0678,-4.077,-4.0875,-4.0952,-4.1038,-4.1123,-4.117,-4.1248,-4.1322,-4.1433,-4.1504,-4.1646,-4.1756,-4.1869,-4.1929,-4.1951,-4.1959,-4.1979,-4.1963,-4.1934,-4.195,-4.179,-4.1954,-4.1953,-4.1952,-4.1952,-4.1952,-4.0722,-4.0792,-4.0886,-4.0988,-4.106,-4.1139,-4.1213,-4.1278,-4.1371,-4.149,-4.1522,-4.1638,-4.1735,-4.1889,-4.1952,-4.2044,-4.2037,-4.2065,-4.2072,-4.2078,-4.2078,-4.1921,-4.2066,-4.2066,-4.2065,-4.2065,-4.2065,0,-4.084,-4.0902,-4.0996,-4.1114,-4.1195,-4.1208,-4.1304,-4.1371,-4.1472,-4.156,-4.1649,-4.1778,-4.1885,-4.1971,-4.2081,-4.2139,-4.2152,-4.2166,-4.2161,-4.2175,-4.208,-4.2051,-4.2154,-4.2154,-4.2154,-4.2154,-4.2154,-4.2154,-4.091,-4.1028,-4.1068,-4.1222,-4.1286,-4.1398,-4.1452,-4.1526,-4.1596,-4.1737,-4.1826,-4.1881,-4.1968,-4.2086,-4.2185,-4.2208,-4.2247,-4.2258,-4.2283,-4.2192,-4.2182,-4.2172,-4.2145,-4.2267,-4.2267,-4.237,-4.2371,-4.2372]},{"header":{"parameterUnit":"m.s-1","parameterCategory":1,"la1":30.2991,"la2":30.254,"lo1":-89.0895,"lo2":-89.0444,"dy":0.0017,"dx":0.0017,"nx":28,"ny":28,"refTime":"2023-09-04T03:00:00:Z","depth":0,"parameterNumber":3,"parameterNumberName":"V-component_of_WINDS"},"data":[0,0,0,0,0,0,0,0,0,0,0,0,0,0,0,0,0,0,0,0,0,0,0,0,0,0,0,0,0,0,0,0,0,0,0,0,0,0,0,0,0,0,0,0,0,0,0,0,0,0,0,0,0,0,0,0,0,0,3.8494,3.8496,0,3.8669,3.8671,3.8673,3.8702,3.87,3.8699,3.8697,3.887,3.8876,3.8882,0,0,0,0,0,0,0,0,0,0,0,0,0,3.8177,3.8183,3.8493,3.8496,3.8498,3.8669,3.8671,3.8674,3.8702,3.87,3.8698,3.8697,3.8868,3.8875,3.8883,0,0,0,0,0,0,0,0,0,0,0,0,0,3.833,3.8185,3.8493,3.8533,3.8538,3.8669,3.8672,3.8675,3.8702,3.87,3.8698,3.8696,3.8866,3.8875,3.8884,3.8985,0,0,3.8911,3.8915,0,0,0,0,0,0,0,0,3.8321,3.8341,3.8525,3.853,3.8537,3.8662,3.8624,3.8778,3.8703,3.864,3.8697,3.8695,3.8802,3.8816,3.8854,3.8993,3.9,3.8912,3.8917,3.8921,3.8924,0,0,0,0,0,0,0,3.8311,3.8334,3.8563,3.8527,3.8535,3.854,3.8559,3.8653,3.8731,3.8645,3.8648,3.8669,3.8805,3.8845,3.8858,3.9003,3.8912,3.892,3.8925,3.8929,3.9234,3.9237,0,0,0,0,0,0,3.8294,3.8325,3.8557,3.8568,3.8421,3.8548,3.8569,3.8624,3.873,3.8745,3.867,3.8669,3.8831,3.8848,3.8864,3.899,3.8921,3.893,3.8935,3.9231,3.9235,3.9237,0,0,0,0,0,0,3.8287,3.8314,3.855,3.8448,3.8478,3.8556,3.8616,3.8628,3.8669,3.875,3.8763,3.8697,3.883,3.8852,3.8955,3.8997,3.8934,3.8942,3.9228,3.9232,3.9236,3.9242,0,0,0,0,0,0,3.8278,3.8312,3.8352,3.8448,3.8483,3.864,3.8619,3.8633,3.8685,3.8685,3.8779,3.8792,3.883,3.8942,3.8964,3.9008,3.8949,3.9225,3.923,3.9235,3.9239,3.9246,3.9252,0,0,0,0,0,3.8266,3.8345,3.8354,3.8381,3.8536,3.8642,3.8662,3.8706,3.8688,3.8729,3.8781,3.8789,3.8989,3.8952,3.8978,3.9025,3.9222,3.9228,3.9234,3.9236,3.9245,3.9252,0,0,0,0,0,0,3.8248,3.8358,3.8369,3.8481,3.8553,3.8647,3.8699,3.8714,3.879,3.8786,3.8836,3.8857,3.8958,3.9002,3.8959,3.9129,3.9104,3.9115,3.9096,3.9105,3.9112,3.9098,3.8956,0,0,0,0,0,3.8258,3.8337,3.8428,3.8518,3.8554,3.862,3.8668,3.8696,3.8771,3.88,3.886,3.893,3.9009,3.906,3.9137,3.9246,3.9266,3.9291,3.9297,3.9303,3.9311,3.9373,3.9385,3.9257,3.9257,3.9257,0,0,3.8277,3.8347,3.8393,3.8516,3.8575,3.8654,3.8645,3.8729,3.8788,3.8812,3.8915,3.8961,3.9043,3.915,3.92,3.9189,3.9352,3.931,3.9314,3.932,3.938,3.9392,3.9403,3.9262,3.9261,3.926,0,0,3.8353,3.8414,3.8497,3.8557,3.8646,3.8691,3.871,3.8803,3.8836,3.894,3.896,3.903,3.9165,3.9223,3.9269,3.937,3.938,3.9394,3.9429,3.9488,3.9498,3.9507,3.9543,3.9555,3.9403,3.9403,3.9403,0,3.8365,3.8488,3.8537,3.8621,3.8674,3.8704,3.8787,3.8841,3.895,3.8986,3.8974,3.9145,3.9201,3.9323,3.9348,3.9385,3.9408,3.9383,3.9493,3.9503,3.9512,3.9546,3.9559,3.9404,3.9404,3.9403,3.9403,0,3.8498,3.8583,3.8639,3.8747,3.8806,3.8889,3.895,3.9004,3.9027,3.9073,3.9178,3.9248,3.934,3.9371,3.9394,3.9496,3.9487,3.9483,3.9459,3.9524,3.9557,3.9571,3.9405,3.9405,3.9404,3.9404,0,0,3.8566,3.8702,3.8721,3.8771,3.8874,3.8939,3.9023,3.9116,3.9162,3.9236,3.9308,3.9422,3.9421,3.9474,3.9503,3.9555,3.9631,3.9546,3.9548,3.9558,3.9748,3.9749,3.9764,3.9639,3.9642,3.9644,3.9741,0,3.8653,3.8807,3.8855,3.8983,3.9062,3.9092,3.9165,3.9235,3.928,3.9352,3.94,3.9481,3.9472,3.9505,3.9558,3.961,3.9669,3.9604,3.9704,3.9707,3.9682,3.9781,3.9783,3.987,3.9754,3.9756,3.9758,0,3.8776,3.8856,3.8993,3.9087,3.9121,3.9187,3.9277,3.9346,3.9425,3.9454,3.9515,3.9541,3.9629,3.9602,3.9723,3.9678,3.9721,3.9754,3.9758,3.9768,3.9735,3.9793,3.99,3.9912,3.9779,3.9777,3.9775,0,3.8811,3.8953,3.9054,3.9095,3.9207,3.9253,3.9301,3.9379,3.9432,3.951,3.9545,3.9631,3.9677,3.9743,3.9791,3.9766,3.9908,3.9884,3.9933,3.9932,3.996,3.9957,4.0074,3.999,3.9989,3.9989,3.9989,0,3.8904,3.8986,3.9071,3.9133,3.9226,3.9279,3.9369,3.9419,3.9488,3.9559,3.9589,3.9655,3.9715,3.9788,3.9826,3.992,3.9941,3.9966,3.9974,3.9963,3.9959,3.9991,3.9986,3.9993,3.9992,3.9991,3.9991,0,3.8958,3.9018,3.913,3.9228,3.9255,3.9319,3.9402,3.9462,3.9509,3.9599,3.9622,3.9695,3.9783,3.9838,3.9948,3.9974,4.0078,4.0085,4.0052,4.0056,4.0101,4.0096,4.0242,4.0264,4.0165,4.0166,4.0166,0,3.9012,3.9077,3.9183,3.9234,3.9284,3.9365,3.942,3.9476,3.9532,3.9629,3.9677,3.9768,3.9843,3.9981,4.0043,4.0127,4.0136,4.0182,4.0149,4.0135,4.0136,4.0132,4.0138,4.0186,4.0187,4.0188,4.0188,0,3.9103,3.913,3.921,3.9302,3.9368,3.9441,3.9515,3.9554,3.9622,3.9683,3.9775,3.9834,3.9948,4.0037,4.0128,4.0175,4.0193,4.0199,4.0214,4.0202,4.018,4.0192,4.0065,4.0195,4.0194,4.0193,4.0193,4.0193,3.9159,3.9218,3.9303,3.9391,3.9453,3.9521,3.9583,3.964,3.9718,3.9817,3.9845,3.994,4.0019,4.0144,4.0193,4.0268,4.0261,4.0284,4.029,4.0294,4.0295,4.017,4.0284,4.0284,4.0284,4.0284,4.0284,0,3.9251,3.9307,3.9388,3.9492,3.9561,3.9575,3.9658,3.9714,3.9799,3.9872,3.9946,4.0052,4.0139,4.0208,4.0297,4.0343,4.0354,4.0365,4.0361,4.0372,4.0296,4.0273,4.0355,4.0355,4.0355,4.0355,4.0355,4.0355,3.9306,3.9408,3.9445,3.9577,3.9633,3.9729,3.9775,3.9838,3.9897,4.0014,4.0088,4.0134,4.0206,4.03,4.038,4.0399,4.0429,4.0439,4.0458,4.0385,4.0377,4.037,4.0349,4.0445,4.0446,4.0529,4.0529,4.053]}]]